Volver al catálogo

STARLINK-30160

ActivoComunicacionesVLEO
NORAD 57441·PAYLOAD·🇺🇸 United States

Lanzado Jul 24, 2023 desde Cape Canaveral Space Force Station

Loading…

Próximos Pases (próximas 24 horas)

TLE

ActualizadoSource: CelesTrak SupGP

Época: Sep 15, 2026, 02:22 UTC

1 57441C 23105M   26258.09909722  .00005311  00000+0  19232-3 0  2580
2 57441  43.0019 276.9608 0001620 268.0647 315.8488 15.27582668    18

Sigue STARLINK-30160 en tiempo real con AllMySat

Download on the App Store